FW7858 Weather Reports


Display with metric or nautical units.
time (UTC)temp
F
wind
direction
speed
MPH
gust
MPH
rain 1hr
in
rain 24hr
in
rain mn
in
humidity
%
barometer
mb
20260905230522 80 314 1.0 4.0 0.00 0.00 0.00 78 1010.6
20260905230019 80 307 2.0 7.0 0.00 0.00 0.00 77 1010.6
20260905225519 80 281 2.0 7.0 0.00 0.00 0.00 77 1010.5
20260905225018 80 281 2.0 9.0 0.00 0.00 0.00 78 1010.4
20260905224518 80 9 3.0 9.0 0.00 0.00 0.00 77 1010.4
20260905224018 80 296 3.0 9.0 0.00 0.00 0.00 77 1010.3
20260905223518 80 313 3.0 9.0 0.00 0.00 0.00 78 1010.4
20260905223033 80 355 2.0 8.0 0.00 0.00 0.00 78 1010.3
20260905222518 80 5 3.0 5.0 0.00 0.00 0.00 78 1010.3
20260905222022 80 355 2.0 9.0 0.00 0.00 0.00 79 1010.3
20260905221534 80 331 2.0 9.0 0.00 0.00 0.00 80 1010.3
20260905221116 79 355 3.0 9.0 0.00 0.00 0.00 80 1010.4
20260905220515 79 355 3.0 12.0 0.00 0.00 0.00 80 1010.3
20260905220015 79 317 5.0 12.0 0.00 0.00 0.00 81 1010.2
20260905215517 79 350 4.0 10.0 0.00 0.00 0.00 81 1010.2
20260905215015 78 355 4.0 14.0 0.00 0.00 0.00 81 1010.2
20260905214514 78 355 6.0 15.0 0.00 0.00 0.00 81 1010.1
20260905214015 79 5 6.0 15.0 0.00 0.00 0.00 81 1010.2
20260905213513 79 344 5.0 10.0 0.00 0.00 0.00 81 1010.3
20260905213011 78 355 4.0 13.0 0.00 0.00 0.00 82 1010.5
20260905212511 78 346 8.0 13.0 0.00 0.00 0.00 80 1010.7
20260905212015 79 351 5.0 14.0 0.00 0.00 0.00 80 1011.0
20260905211524 78 11 3.0 14.0 0.00 0.00 0.00 81 1011.0
20260905211008 79 338 9.0 13.0 0.00 0.00 0.00 80 1011.1
20260905210510 79 5 7.0 12.0 0.00 0.00 0.00 80 1011.2
20260905210007 79 355 4.0 13.0 0.00 0.00 0.00 80 1011.5
20260905205508 79 336 5.0 13.0 0.00 0.00 0.00 80 1011.6
20260905205007 79 13 7.0 13.0 0.00 0.00 0.00 80 1011.7
20260905204509 79 355 4.0 12.0 0.00 0.00 0.00 81 1011.7
20260905204007 79 5 6.0 15.0 0.00 0.00 0.00 81 1012.0
20260905203508 79 347 6.0 15.0 0.00 0.00 0.00 81 1011.9
20260905203008 79 345 5.0 15.0 0.00 0.00 0.00 81 1012.0
20260905202505 79 348 3.0 13.0 0.00 0.00 0.00 80 1012.0
20260905202005 79 355 5.0 13.0 0.00 0.00 0.00 80 1012.0
20260905201610 79 13 6.0 14.0 0.00 0.00 0.00 79 1012.2
20260905201007 79 355 7.0 12.0 0.00 0.00 0.00 78 1012.1
20260905200503 79 355 5.0 11.0 0.00 0.00 0.00 78 1011.9
20260905200004 79 351 5.0 13.0 0.00 0.00 0.00 78 1012.0
20260905195506 79 350 6.0 13.0 0.00 0.00 0.00 77 1012.2
20260905195002 79 5 5.0 10.0 0.00 0.00 0.00 78 1012.2
20260905194502 79 341 5.0 12.0 0.00 0.00 0.00 78 1012.2
20260905194003 79 5 4.0 12.0 0.00 0.00 0.00 77 1012.3
20260905193501 79 360 4.0 12.0 0.00 0.00 0.00 76 1012.5
20260905193001 79 341 6.0 12.0 0.00 0.00 0.00 76 1012.7
20260905192502 79 329 6.0 10.0 0.00 0.00 0.00 77 1012.8
20260905192101 79 9 3.0 10.0 0.00 0.00 0.00 76 1012.9
20260905191600 79 351 5.0 10.0 0.00 0.00 0.00 78 1013.0
20260905191104 79 5 4.0 12.0 0.00 0.00 0.00 78 1013.0
20260905190600 79 355 6.0 12.0 0.00 0.00 0.00 77 1013.1
20260905190059 79 9 5.0 11.0 0.00 0.00 0.00 76 1013.3
20260905185559 79 9 4.0 12.0 0.00 0.00 0.00 78 1013.2
20260905185100 79 5 4.0 12.0 0.00 0.00 0.00 77 1013.2
20260905185001 79 5 4.0 12.0 0.00 0.00 0.00 77 1013.2
20260905184608 79 355 4.0 9.0 0.00 0.00 0.00 77 1013.0
20260905184059 79 5 4.0 9.0 0.00 0.00 0.00 78 1013.0
20260905183601 78 5 4.0 12.0 0.00 0.00 0.00 79 1013.0
20260905183058 78 5 6.0 12.0 0.00 0.00 0.00 77 1013.0
20260905182557 79 360 5.0 10.0 0.00 0.00 0.00 77 1013.0
20260905182057 79 343 3.0 10.0 0.00 0.00 0.00 76 1012.9
20260905181557 79 355 5.0 10.0 0.00 0.00 0.00 76 1012.8
20260905181055 79 311 1.0 4.0 0.00 0.00 0.00 77 1012.7
20260905180555 79 329 2.0 5.0 0.00 0.00 0.00 76 1012.7
20260905180100 79 313 2.0 5.0 0.00 0.00 0.00 76 1012.6
20260905175552 79 178 2.0 6.0 0.00 0.00 0.00 77 1012.7
20260905175052 79 288 1.0 6.0 0.00 0.00 0.00 77 1012.7
20260905174600 78 311 1.0 6.0 0.00 0.00 0.00 77 1012.6
20260905174054 78 298 2.0 5.0 0.00 0.00 0.00 77 1012.5
20260905173552 78 302 2.0 6.0 0.00 0.00 0.00 79 1012.7
20260905173049 78 284 2.0 6.0 0.00 0.00 0.00 78 1012.8
20260905172547 78 136 2.0 6.0 0.00 0.00 0.00 79 1012.8
20260905172046 77 355 2.0 8.0 0.00 0.00 0.00 79 1012.8
20260905171558 77 246 3.0 8.0 0.00 0.00 0.00 79 1013.0
20260905171043 77 101 3.0 6.0 0.00 0.00 0.00 79 1012.9
20260905170542 77 153 2.0 7.0 0.00 0.00 0.00 80 1012.9
20260905170040 76 355 2.0 10.0 0.00 0.00 0.00 81 1013.0
20260905165539 76 9 4.0 10.0 0.00 0.00 0.00 80 1012.9
20260905165038 76 338 2.0 8.0 0.00 0.00 0.00 81 1012.9
20260905164541 76 110 3.0 8.0 0.00 0.00 0.00 81 1012.9
20260905164036 75 335 2.0 9.0 0.00 0.00 0.00 82 1013.1
20260905163536 75 320 3.0 10.0 0.00 0.00 0.00 82 1013.2
20260905163036 74 350 4.0 10.0 0.00 0.00 0.00 82 1013.2
20260905162538 75 355 5.0 8.0 0.00 0.00 0.00 81 1013.2
20260905162034 75 49 2.0 7.0 0.00 0.00 0.00 82 1013.3
20260905161540 75 306 2.0 7.0 0.00 0.00 0.00 83 1013.3
20260905161033 74 347 2.0 5.0 0.00 0.00 0.00 84 1013.1
20260905160535 74 300 2.0 4.0 0.00 0.00 0.00 84 1013.2
20260905160043 73 339 2.0 4.0 0.00 0.00 0.00 85 1013.2
20260905155530 73 302 2.0 5.0 0.00 0.00 0.00 85 1013.2
20260905155031 72 84 1.0 7.0 0.00 0.00 0.00 87 1013.3
20260905154545 72 293 3.0 7.0 0.00 0.00 0.00 87 1013.5
20260905154025 71 321 2.0 4.0 0.00 0.00 0.00 87 1013.5
20260905153524 71 321 2.0 5.0 0.00 0.00 0.00 88 1013.5
20260905153026 70 290 2.0 5.0 0.00 0.00 0.00 88 1013.6
20260905152524 70 284 1.0 4.0 0.00 0.00 0.00 88 1013.5
20260905152021 70 188 1.0 5.0 0.00 0.00 0.00 89 1013.5
20260905151520 69 360 2.0 5.0 0.00 0.00 0.00 89 1013.6
20260905151021 69 286 1.0 5.0 0.00 0.00 0.00 90 1013.7
20260905150520 68 103 2.0 5.0 0.00 0.00 0.00 90 1013.7
20260905150017 68 309 2.0 4.0 0.00 0.00 0.00 91 1013.6
20260905145518 68 312 2.0 6.0 0.00 0.00 0.00 90 1013.6
20260905145019 68 355 2.0 6.0 0.00 0.00 0.00 91 1013.6
20260905144521 67 5 3.0 6.0 0.00 0.00 0.00 91 1013.6
20260905144015 67 350 2.0 8.0 0.00 0.00 0.00 91 1013.7
20260905143516 67 351 4.0 8.0 0.00 0.00 0.00 92 1013.5
20260905143016 67 351 3.0 8.0 0.00 0.00 0.00 92 1013.5
20260905142515 66 5 2.0 8.0 0.00 0.00 0.00 93 1013.5
20260905142017 66 355 1.0 9.0 0.00 0.00 0.00 93 1013.5
20260905141517 66 355 2.0 9.0 0.00 0.00 0.00 94 1013.4
20260905141016 65 9 2.0 5.0 0.00 0.00 0.00 94 1013.3
20260905140517 65 294 1.0 5.0 0.00 0.00 0.00 94 1013.4
20260905140016 65 312 3.0 6.0 0.00 0.00 0.00 94 1013.4
20260905135514 65 317 3.0 6.0 0.00 0.00 0.00 94 1013.3
20260905135013 65 291 3.0 7.0 0.00 0.00 0.00 94 1013.2
20260905134514 65 301 3.0 7.0 0.00 0.00 0.00 94 1013.2
20260905134014 65 321 2.0 5.0 0.00 0.00 0.00 95 1013.3
20260905133517 65 300 2.0 5.0 0.00 0.00 0.00 95 1013.3
20260905133013 65 313 3.0 6.0 0.00 0.00 0.00 95 1013.3
20260905132513 64 346 3.0 7.0 0.00 0.00 0.00 95 1013.3
20260905132018 64 346 3.0 5.0 0.00 0.00 0.00 95 1013.5
20260905131512 64 316 1.0 3.0 0.00 0.00 0.00 95 1013.7
20260905131011 64 315 2.0 4.0 0.00 0.00 0.00 95 1013.5
20260905130513 64 306 2.0 8.0 0.00 0.00 0.00 95 1013.2
20260905130015 64 273 2.0 8.0 0.00 0.00 0.00 95 1013.0
20260905125512 64 292 3.0 7.0 0.00 0.00 0.00 95 1012.9
20260905125008 64 355 2.0 6.0 0.00 0.00 0.00 95 1012.7
20260905124511 64 345 2.0 10.0 0.00 0.00 0.00 95 1012.8
20260905124006 64 355 3.0 6.0 0.00 0.00 0.00 95 1012.6
20260905123608 64 355 2.0 8.0 0.00 0.00 0.00 95 1012.6
20260905123005 64 5 4.0 8.0 0.00 0.00 0.00 96 1012.3
20260905122511 64 5 3.0 6.0 0.00 0.00 0.00 96 1012.3
20260905122005 64 5 2.0 6.0 0.00 0.00 0.00 96 1012.4
20260905121506 64 355 3.0 9.0 0.00 0.00 0.00 96 1012.3
20260905121004 64 338 2.0 6.0 0.00 0.00 0.00 96 1012.4
20260905120503 64 360 3.0 8.0 0.00 0.00 0.00 96 1012.3
20260905120003 64 5 3.0 8.0 0.00 0.00 0.00 96 1012.2
20260905115504 64 360 3.0 9.0 0.00 0.00 0.00 96 1012.4
20260905115002 64 355 3.0 9.0 0.00 0.00 0.00 96 1012.5
20260905114501 64 336 2.0 5.0 0.00 0.00 0.00 96 1012.6
20260905114100 64 304 1.0 4.0 0.00 0.00 0.00 97 1012.6
20260905114002 64 304 0.0 4.0 0.00 0.00 0.00 97 1012.5
20260905113600 64 360 2.0 4.0 0.00 0.00 0.00 97 1012.6
20260905113501 64 360 2.0 5.0 0.00 0.00 0.00 97 1012.6
20260905113100 64 355 1.0 5.0 0.00 0.00 0.00 97 1012.6
20260905112559 64 317 2.0 4.0 0.00 0.00 0.00 97 1012.4
20260905112058 64 302 1.0 5.0 0.00 0.00 0.00 97 1012.4
20260905111611 64 302 0.0 5.0 0.00 0.00 0.00 97 1012.4
20260905111058 64 292 1.0 4.0 0.00 0.00 0.00 97 1012.5
20260905110600 64 290 2.0 4.0 0.00 0.00 0.00 96 1012.3
20260905110101 65 292 2.0 4.0 0.00 0.00 0.00 96 1012.3
20260905105557 65 265 1.0 3.0 0.00 0.00 0.00 97 1012.4
20260905105055 65 258 1.0 4.0 0.00 0.00 0.00 97 1012.4
20260905104554 65 182 1.0 4.0 0.00 0.00 0.00 97 1012.2
20260905104056 65 175 1.0 5.0 0.00 0.00 0.00 97 1012.3
20260905103554 65 313 2.0 5.0 0.00 0.00 0.00 97 1011.9
20260905103055 65 217 0.0 6.0 0.00 0.00 0.00 97 1012.1
20260905102554 65 150 2.0 5.0 0.00 0.00 0.00 97 1011.9
20260905102053 65 26 2.0 5.0 0.00 0.00 0.00 96 1011.9
20260905101553 65 179 2.0 5.0 0.00 0.00 0.00 96 1011.8
20260905101052 65 299 2.0 6.0 0.00 0.00 0.00 96 1012.0
20260905100553 65 288 2.0 6.0 0.00 0.00 0.00 96 1011.8
20260905100051 65 328 3.0 6.0 0.00 0.00 0.00 96 1011.4
20260905095551 65 252 2.0 6.0 0.00 0.00 0.00 96 1011.2
20260905095050 65 333 2.0 7.0 0.00 0.00 0.00 96 1011.2
20260905094601 65 282 2.0 7.0 0.00 0.00 0.00 96 1011.3
20260905094049 65 275 2.0 6.0 0.00 0.00 0.00 96 1011.3
20260905093550 65 267 2.0 4.0 0.00 0.00 0.00 96 1011.3
20260905093048 65 278 3.0 5.0 0.00 0.00 0.00 96 1011.2
20260905092548 65 291 3.0 6.0 0.00 0.00 0.00 96 1011.2
20260905092047 65 329 2.0 9.0 0.00 0.00 0.00 96 1011.1
20260905091553 65 285 2.0 9.0 0.00 0.00 0.00 96 1011.2
20260905091045 65 327 2.0 5.0 0.00 0.00 0.00 96 1011.2
20260905090546 66 346 3.0 5.0 0.00 0.00 0.00 96 1011.2
20260905090045 65 315 2.0 5.0 0.00 0.00 0.00 96 1011.3
20260905085544 65 350 2.0 8.0 0.00 0.00 0.00 96 1011.4
20260905085044 65 355 2.0 8.0 0.00 0.00 0.00 96 1011.4
20260905084546 65 350 3.0 8.0 0.00 0.00 0.00 96 1011.7
20260905084043 65 314 3.0 8.0 0.00 0.00 0.00 96 1011.8
20260905083545 66 9 3.0 6.0 0.00 0.00 0.00 96 1011.8
20260905083042 66 360 3.0 6.0 0.00 0.00 0.00 96 1011.8
20260905082541 66 325 2.0 4.0 0.00 0.00 0.00 96 1011.9
20260905082044 66 288 2.0 5.0 0.00 0.00 0.00 96 1012.1
20260905081543 66 292 1.0 5.0 0.00 0.00 0.00 96 1011.9
20260905081040 66 355 2.0 5.0 0.00 0.00 0.00 96 1011.7
20260905080539 66 311 2.0 5.0 0.00 0.00 0.00 95 1011.8
20260905080052 66 271 2.0 5.0 0.00 0.00 0.00 95 1011.8
20260905075538 66 63 1.0 6.0 0.00 0.00 0.00 95 1011.8
20260905075043 66 342 2.0 4.0 0.00 0.00 0.00 95 1011.8
20260905074538 66 355 2.0 6.0 0.00 0.00 0.00 95 1011.7
20260905074038 66 338 1.0 6.0 0.00 0.00 0.00 95 1011.8
20260905073537 66 355 3.0 6.0 0.00 0.00 0.00 95 1011.8
20260905073044 66 350 3.0 6.0 0.00 0.00 0.00 95 1011.7
20260905072536 66 5 3.0 8.0 0.00 0.00 0.00 95 1011.7
20260905072037 66 355 4.0 8.0 0.00 0.00 0.00 95 1011.9
20260905071535 66 360 3.0 8.0 0.00 0.00 0.00 95 1012.0
20260905071036 66 5 3.0 9.0 0.00 0.00 0.00 94 1012.1
20260905070532 66 5 2.0 9.0 0.00 0.00 0.00 94 1012.2
20260905070043 66 355 3.0 10.0 0.00 0.00 0.00 94 1012.1
20260905065532 66 349 5.0 10.0 0.00 0.00 0.00 94 1012.0
20260905065034 66 360 3.0 6.0 0.00 0.00 0.00 94 1012.2
20260905064531 66 350 2.0 6.0 0.00 0.00 0.00 94 1012.2
20260905064030 66 9 2.0 6.0 0.00 0.00 0.00 93 1012.2
20260905063529 66 275 1.0 4.0 0.00 0.00 0.00 93 1012.4
20260905063029 66 243 1.0 4.0 0.00 0.00 0.00 93 1012.4
20260905062531 66 296 1.0 5.0 0.00 0.00 0.00 93 1012.3
20260905062030 66 330 2.0 9.0 0.00 0.00 0.00 93 1012.1
20260905061542 66 355 3.0 9.0 0.00 0.00 0.00 93 1012.1
20260905061027 67 342 3.0 9.0 0.00 0.00 0.00 93 1012.1
20260905060527 67 5 4.0 9.0 0.00 0.00 0.00 93 1012.1
20260905060025 67 5 4.0 9.0 0.00 0.00 0.00 93 1012.1
20260905055524 67 360 3.0 5.0 0.00 0.00 0.00 93 1012.1
20260905055025 67 339 2.0 5.0 0.00 0.00 0.00 92 1012.2
20260905054523 67 267 2.0 5.0 0.00 0.00 0.00 92 1012.3
20260905054022 67 220 2.0 6.0 0.00 0.00 0.00 92 1012.4
20260905053525 68 300 2.0 4.0 0.00 0.00 0.00 92 1012.3
20260905053022 68 294 2.0 6.0 0.00 0.00 0.00 92 1012.4
20260905052519 68 276 2.0 6.0 0.00 0.00 0.00 92 1012.3
20260905052019 68 295 2.0 4.0 0.00 0.00 0.00 92 1012.2
20260905051523 68 292 1.0 4.0 0.00 0.00 0.00 92 1012.3
20260905051017 68 284 2.0 3.0 0.00 0.00 0.00 92 1012.2
20260905050517 68 317 1.0 3.0 0.00 0.00 0.00 92 1012.2
20260905050016 68 333 1.0 3.0 0.00 0.00 0.00 91 1012.2
20260905045514 69 325 1.0 4.0 0.00 0.00 0.00 91 1012.2
20260905045015 69 355 1.0 4.0 0.00 0.00 0.00 91 1012.1
20260905044517 69 355 1.0 3.0 0.00 0.00 0.00 91 1012.0
20260905044015 69 355 2.0 5.0 0.00 0.00 0.00 91 1012.0
20260905043514 69 355 2.0 5.0 0.00 0.00 0.00 90 1011.9
20260905043016 69 315 1.0 4.0 0.00 0.00 0.00 90 1011.9
20260905042516 69 317 1.0 4.0 0.00 0.00 0.00 90 1012.0
20260905042013 69 360 1.0 5.0 0.00 0.00 0.00 90 1011.9
20260905041514 70 360 2.0 6.0 0.00 0.00 0.00 90 1011.8
20260905041013 70 350 2.0 5.0 0.00 0.00 0.00 90 1011.7
20260905040512 70 348 2.0 8.0 0.00 0.00 0.00 90 1011.7
20260905040018 70 338 2.0 8.0 0.00 0.00 0.00 90 1011.7
20260905035514 70 351 3.0 8.0 0.00 0.00 0.00 90 1011.6
20260905035012 70 5 3.0 6.0 0.00 0.00 0.00 90 1011.7
20260905034513 71 355 3.0 8.0 0.00 0.00 0.00 89 1011.7
20260905034011 71 355 3.0 9.0 0.00 0.00 0.00 89 1011.8
20260905033511 71 12 3.0 6.0 0.00 0.00 0.00 89 1011.8
20260905033014 71 355 3.0 6.0 0.00 0.00 0.00 88 1011.9
20260905032513 71 360 2.0 5.0 0.00 0.00 0.00 88 1011.9
20260905032011 71 5 3.0 5.0 0.00 0.00 0.00 88 1011.9
20260905031514 72 5 0.0 3.0 0.00 0.00 0.00 87 1012.0
20260905031011 72 5 1.0 3.0 0.00 0.00 0.00 87 1012.0
20260905030515 72 5 1.0 3.0 0.00 0.00 0.00 87 1012.1
20260905030010 72 5 0.0 3.0 0.00 0.00 0.00 87 1012.0
20260905025514 72 5 0.0 3.0 0.00 0.00 0.00 87 1012.0
20260905025012 72 9 0.0 3.0 0.00 0.00 0.00 86 1011.9
20260905024509 72 9 0.0 5.0 0.00 0.00 0.00 86 1011.9
20260905024011 73 9 3.0 5.0 0.00 0.00 0.00 86 1011.8
20260905023508 73 5 0.0 2.0 0.00 0.00 0.00 87 1011.8
20260905023007 73 5 0.0 4.0 0.00 0.00 0.00 86 1011.7
20260905022505 73 5 2.0 4.0 0.00 0.00 0.00 86 1011.5
20260905022007 73 5 2.0 4.0 0.00 0.00 0.00 86 1011.4
20260905021507 74 5 1.0 4.0 0.00 0.00 0.00 86 1011.3
20260905021003 74 5 1.0 5.0 0.00 0.00 0.00 86 1011.2
20260905020506 74 5 2.0 5.0 0.00 0.00 0.00 85 1011.2
20260905020002 74 5 2.0 4.0 0.00 0.00 0.00 85 1011.3
20260905015502 75 5 0.0 3.0 0.00 0.00 0.00 84 1011.3
20260905015002 75 5 0.0 4.0 0.00 0.00 0.00 84 1011.1
20260905014604 75 5 1.0 4.0 0.00 0.00 0.00 84 1011.0
20260905014100 75 5 1.0 4.0 0.00 0.00 0.00 83 1010.8
20260905013601 76 5 1.0 4.0 0.00 0.00 0.00 83 1010.8
20260905013102 76 9 0.0 5.0 0.00 0.00 0.00 82 1010.8
20260905013001 76 9 0.0 5.0 0.00 0.00 0.00 82 1010.7
20260905012602 76 9 2.0 5.0 0.00 0.00 0.00 82 1010.5
20260905012100 76 9 2.0 5.0 0.00 0.00 0.00 81 1010.3
20260905011558 77 5 2.0 5.0 0.00 0.00 0.00 81 1010.3
20260905011057 77 5 2.0 5.0 0.00 0.00 0.00 80 1010.3
20260905010558 77 5 2.0 5.0 0.00 0.00 0.00 80 1010.3
20260905005557 78 5 1.0 5.0 0.00 0.03 0.00 79 1010.1
20260905005057 78 5 2.0 6.0 0.00 0.03 0.00 78 1010.0
20260905004603 78 360 3.0 6.0 0.00 0.03 0.00 78 1010.1
20260905004056 79 21 2.0 4.0 0.00 0.03 0.00 77 1010.2
20260905003557 79 107 0.0 2.0 0.00 0.03 0.00 76 1010.2
20260905003057 80 107 0.0 3.0 0.00 0.03 0.00 76 1010.1
20260905002555 80 107 1.0 3.0 0.00 0.03 0.00 75 1010.1
20260905002100 80 114 1.0 3.0 0.00 0.03 0.00 74 1010.1
20260905001556 81 113 0.0 3.0 0.00 0.03 0.00 73 1010.0
20260905001055 81 5 1.0 3.0 0.00 0.03 0.00 73 1009.9
20260905000555 81 9 0.0 5.0 0.00 0.03 0.00 72 1009.8
20260905000055 81 9 2.0 5.0 0.00 0.03 0.00 72 1010.0
20260904235555 82 5 2.0 5.0 0.00 0.03 0.00 71 1010.0
20260904235056 82 360 2.0 6.0 0.00 0.03 0.00 71 1010.0
20260904234557 82 355 2.0 8.0 0.00 0.03 0.00 71 1010.0
20260904234059 82 5 1.0 5.0 0.00 0.03 0.00 71 1010.0
20260904233555 82 355 2.0 6.0 0.00 0.03 0.00 71 1010.0
20260904233055 82 360 2.0 6.0 0.00 0.03 0.00 70 1010.0
20260904232554 82 305 1.0 3.0 0.00 0.03 0.00 71 1010.1
20260904232055 82 298 1.0 3.0 0.00 0.03 0.00 71 1010.1
20260904231557 82 288 1.0 3.0 0.00 0.03 0.00 70 1010.1
20260904231053 82 288 1.0 3.0 0.00 0.03 0.00 70 1010.1